STARLINK-1363, 45568

Orbit data source: Space-Track

STARLINK-1363, 45568 is a payload satellite owned by SpaceX/Seattle (US) in LEO that was launched on Wed, 22 Apr 2020 UTC via an FALCON 9 launch vehicle from the Air Force Eastern Test Range (AFETR). Payload-class satellites include a variety of spacecraft equipped with specific instruments for various scientific and technological missions. These include communications satellites like Starlink; space stations such as the ISS; scientific satellites like the Hubble; Earth observation satellites from companies like Planet Labs, Umbra, and HawkEye 360; GPS; miniature CubeSats for education and research; and military/defense satellites.

Loading next visibility...
Identifier
45568, 2020-025AP
Orbit
LEO
Last TLE update
16 hours ago
Origin
Manufacturer
SpaceX/Seattle
Mission
Operational Commercial Communications
Bus & Motor
STARLINK, Unknown motor
Mass
260 kg wet, ~248 kg dry
Launch date (UTC)
2020-04-22 (5 years ago)
Launch vehicle
FALCON 9
Launch site
Air Force Eastern Test Range (AFETR)
Object type
Payload
Rocket body
Debris
Shape & HBR
Box + 1 Pan, 8.86 m
Radar Cross Section
13.562 m², Large (>1 m²)

Expand to show TLE details & history

TLE from 16 hours ago
0 STARLINK-1363
1 45568U 20025AP  25182.58377876 -.00000205  00000-0  51375-5 0  9990
2 45568  53.0548 134.1205 0001590  87.4669 272.6502 15.06396263287514
Epoch: 2025-07-01T14:00Z
TLE epoch observation values (Epoch: 2025-07-01T14:00:38.484Z)
Latitude
-0.00004°
Longitude
4.08298°
Altitude
548.051 km
Speed
7.589 km/s
True Right ascension
08h 56m 28s
True Declination
0° 00' 00"
Sunlit
Object was in daylight at epoch
Visualization orbit readout
Latitude
3.99049°
Longitude
4.0905°
Altitude
547.565 km
Speed
7.59 km/s
Apparent Right ascension
07h 35m 39s
Apparent Declination
-18° 27' 28"
Sunlit
Object is in daylight
Visualization observer readout
Local Sidereal Time
17:39:00
Azimuth
301.985° NW
Elevation
-56.978°
Doppler factor
1
Orbital elements
Apogee altitude
548.595 km
Perigee altitude
546.393 km
Semi-major axis
6,925.631 km
Eccentricity
0.00016
Inclination
53.0548°
RAAN
134.1205°
Arg. of periapsis
87.4669°
True anomaly
Unknown
Mean anomaly
272.6502°
Eccentric anomaly
Unknown
Mean motion
3.76577 °/min
Orbital period
95.6 mins
BSTAR
0.0000051375
Loading maneuver chart data...
Loading SW <> Apogee altitude chart data...
Loading historical data...
Loading historical data...
Loading historical data...
Loading historical data...
Loading historical data...
Loading historical data...
Loading historical data...

STARLINK-1363 Visibility forecast

Observer location: undefined°, undefined°

Span
Click to sort rows by Start time (UTC) header in descending order
Start Az.
Max El. time (UTC)
Max El. Az.
Max El.
End time (UTC)
End Az.
7 mins2025-07-02 06:26:21.205Z308.7° NW2025-07-02 06:29:21.205Z296.622° NW43.693°2025-07-02 06:33:21.205Z132.865° SE
4 mins2025-07-02 22:01:21.205Z151.944° SSE2025-07-02 22:02:21.205Z134.403° SE16.814°2025-07-02 22:05:21.205Z85.855° E
6 mins2025-07-02 23:39:21.205Z246.366° WSW2025-07-02 23:42:21.205Z0.193° NNE40.121°2025-07-02 23:45:21.205Z43.524° NE
4 mins2025-07-03 01:20:21.205Z312.497° NW2025-07-03 01:22:21.205Z348.111° N16.981°2025-07-03 01:24:21.205Z20.347° NNE
5 mins2025-07-03 04:41:21.205Z340.269° N2025-07-03 04:43:21.205Z18.922° NNE23.055°2025-07-03 04:46:21.205Z76.19° E
|